This is the latest recevied weather packets stored in our database for station/object 9M2MIN-1. If no packets are shown the sender has not sent any weather packets the latest 10 day(s).
| Time | Temp. | Humidity | Pressure | Rain* | Wind** | Luminosity | Snow |
|---|---|---|---|---|---|---|---|
| 1777813229 | 32.22° C | 77% | 1007.8 hPa | - | - | - | - |
| 1777812329 | 32.78° C | 75% | 1007.5 hPa | - | - | - | - |
| 1777811429 | 32.78° C | 75% | 1007.5 hPa | - | - | - | - |
| 1777810529 | 32.78° C | 75% | 1007.5 hPa | - | - | - | - |
| 1777809629 | 32.78° C | 75% | 1007.5 hPa | - | - | - | - |
| 1777809370 | 32.78° C | 76% | 1007.4 hPa | - | - | - | - |
| 1777809331 | 32.78° C | 76% | 1007.4 hPa | - | - | - | - |
| 1777808431 | 32.78° C | 74% | 1007.1 hPa | - | - | - | - |
| 1777807531 | 32.78° C | 74% | 1006.7 hPa | - | - | - | - |
| 1777806631 | 32.78° C | 72% | 1006.3 hPa | - | - | - | - |
| 1777805731 | 32.78° C | 72% | 1006.1 hPa | - | - | - | - |
| 1777804831 | 33.33° C | 69% | 1006.2 hPa | - | - | - | - |
| 1777804064 | 33.33° C | 69% | 1006 hPa | - | - | - | - |
| 1777803931 | 33.33° C | 69% | 1006 hPa | - | - | - | - |
| 1777803031 | 33.33° C | 66% | 1006 hPa | - | - | - | - |
| 1777802131 | 33.33° C | 66% | 1006.1 hPa | - | - | - | - |
| 1777801231 | 33.33° C | 66% | 1005.8 hPa | - | - | - | - |
| 1777800330 | 33.89° C | 63% | 1005.8 hPa | - | - | - | - |
| 1777799430 | 33.89° C | 62% | 1005.4 hPa | - | - | - | - |
| 1777798596 | 33.89° C | 64% | 1005.4 hPa | - | - | - | - |
| 1777798529 | 33.89° C | 64% | 1005.4 hPa | - | - | - | - |
| 1777797705 | 33.89° C | 64% | 1005.3 hPa | - | - | - | - |
| 1777797629 | 33.89° C | 64% | 1005.3 hPa | - | - | - | - |
| 1777796729 | 33.89° C | 65% | 1005.3 hPa | - | - | - | - |
| 1777796324 | 33.89° C | 64% | 1005.5 hPa | - | - | - | - |
* Rain since midnight (hover to see other rain measurements)
** Current wind speed in m/s (hover to see current wind gust speed)